Weather in Shemalakovo

Russia / Chuvash Republic     54°58′23″N   47°54′31″E
temp.,
°C
wind,
m/s
gust,
m/s
humid.,
%
clouds,
%
prec.,
mm/h
press.,
hPa
HPBL,
m
22 january, sat
sat2200:00−12sse71694100 0.0 1016414
03:00−11sse71594100 0.3 1016466
06:00−11se61294100 0.1 1016369
09:00−9se71395100 0.6 1017441
12:00−7sse71292100 0.4 1018542
15:00−6sse61294100 0.8 1018466
18:00−5se71395100 0.5 1019527
21:00−5sse71395100 2.4 1020584
23 january, sun
sun2300:00−5sse61295100 1.5 1021549
03:00−6sse51094100 1.9 1023354
06:00−6sse3896100 0.1 1025208
09:00−6sse4796100 0.7 1027281
12:00−5sse4796100 0.3 1029286
15:00−5se3696100 0.8 1031261
18:00−6se3696100 0.6 1032218
21:00−7se2596100 0.8 1034155
24 january, mon
mon2400:00−7se2496100 0.4 1035151
03:00−8se2597100 0.8 1036112
06:00−9ese2297100 0.1 103762
09:00−9ese2397100 0.1 103856
12:00−8e2296100 0.0 103958
15:00−12ese229647 0.0 103910
18:00−17se119699 0.0 10399
21:00−18ne119739 0.0 10399
25 january, tue
tue2500:00−20se1110054 0.0 10389
03:00−21se1210059 0.0 10379
06:00−22se1110066 0.0 10369
09:00−22sse2210076 0.0 103517
12:00−15sse37915 0.0 1033127
15:00−15sse37925 0.0 103197
18:00−18sse369898 0.0 103064
21:00−16s3798100 0.0 102977
26 january, wed
wed2600:00−17s379826 0.0 102782
03:00−18sse379955 0.0 102777
06:00−17s379967 0.0 102683
09:00−15s3798100 0.0 1025129
12:00−10s3794100 0.0 1024207
15:00−9sse3696100 0.1 1023212
18:00−8sse3796100 0.6 1023242
21:00−8s3597100 0.9 1022104